This is the latest recevied weather packets stored in our database for station/object IU1TLK-10. If no packets are shown the sender has not sent any weather packets the latest 10 day(s).
| Time | Temp. | Humidity | Pressure | Rain* | Wind** | Luminosity | Snow |
|---|---|---|---|---|---|---|---|
| 1778230125 | 14.44° C | 61% | 1018.8 hPa | - | - | - | - |
| 1778228325 | 14.44° C | 63% | 1018.7 hPa | - | - | - | - |
| 1778226525 | 13.33° C | 64% | 1018.6 hPa | - | - | - | - |
| 1778224725 | 12.78° C | 68% | 1018.3 hPa | - | - | - | - |
| 1778222925 | 11.67° C | 68% | 1018.1 hPa | - | - | - | - |
| 1778221124 | 11.11° C | 68% | 1018 hPa | - | - | - | - |
| 1778219324 | 10.56° C | 68% | 1017.6 hPa | - | - | - | - |
| 1778217524 | 10.56° C | 68% | 1017.4 hPa | - | - | - | - |
| 1778215724 | 10.56° C | 68% | 1017.2 hPa | - | - | - | - |
| 1778213924 | 10° C | 68% | 1016.9 hPa | - | - | - | - |
| 1778212123 | 10.56° C | 68% | 1016.7 hPa | - | - | - | - |
| 1778210323 | 10.56° C | 68% | 1016.5 hPa | - | - | - | - |
| 1778208525 | 10.56° C | 68% | 1016.4 hPa | - | - | - | - |
| 1778206725 | 10.56° C | 68% | 1016.5 hPa | - | - | - | - |
| 1778204925 | 11.11° C | 68% | 1016.4 hPa | - | - | - | - |
| 1778203124 | 11.11° C | 68% | 1016.5 hPa | - | - | - | - |
| 1778201324 | 11.11° C | 67% | 1016.7 hPa | - | - | - | - |
| 1778199524 | 11.67° C | 67% | 1016.6 hPa | - | - | - | - |
| 1778197724 | 11.67° C | 66% | 1016.6 hPa | - | - | - | - |
| 1778195924 | 11.67° C | 66% | 1017 hPa | - | - | - | - |
| 1778194123 | 12.22° C | 65% | 1016.7 hPa | - | - | - | - |
| 1778192323 | 12.22° C | 63% | 1016.7 hPa | - | - | - | - |
| 1778190523 | 12.78° C | 61% | 1016.3 hPa | - | - | - | - |
| 1778188723 | 13.33° C | 60% | 1016.2 hPa | - | - | - | - |
| 1778186925 | 13.33° C | 58% | 1016.1 hPa | - | - | - | - |
* Rain since midnight (hover to see other rain measurements)
** Current wind speed in m/s (hover to see current wind gust speed)